Weather History for Langley AFB, VA

Change the Weather History Date:

Wednesday, March 6, 2013

  Actual Average Record
Temperature  
Mean Temperature 42 °F -  
Max Temperature 48 °F 55 °F 82 °F (1967)
Min Temperature 37 °F 38 °F 21 °F (1960)
Degree Days  
Heating Degree Days 22    
Moisture  
Dew Point 40 °F    
Average Humidity 91    
Maximum Humidity 100    
Minimum Humidity 78    
Precipitation  
Precipitation 0.49 in - - ()
Sea Level Pressure  
Sea Level Pressure 29.52 in    
Wind  
Wind Speed 20 mph (ENE)    
Max Wind Speed 36 mph    
Max Gust Speed 51 mph    
Visibility 6 miles    
Events Rain    
Averages and records for this station are not official NWS values.
T = Trace of Precipitation, MM = Missing Value Source: NWS Daily Summary

Daily Weather History Graph

Daily Weather History Graph

Search for Another Location

Airport:

Trip Planner

Search our weather history database for the weather conditions in past years. The results will help you decide how hot, cold, wet, or windy it might be!

Date:

Astronomy

Mar. 06, 2013 Rise Set
Actual Time 6:29 AM EST 6:04 PM EST
Civil Twilight 6:03 AM EST 6:30 PM EST
Nautical Twilight 5:33 AM EST 7:00 PM EST
Astronomical Twilight 5:02 AM EST 7:30 PM EST
Moon 2:30 AM EST (3/6) 12:49 PM EST (3/6)
Length of Visible Light 12h 27m
Length of Day
11h 35m
Waning Crescent, 30% of the Moon is Illuminated
Mar 6
Waning Crescent
Mar 11
New
Mar 19
First Quarter
Mar 27
Full
Apr 3
Last Quarter

Hourly Weather History & Observations

Time (EST) Temp. Windchill Dew Point Humidity Pressure Visibility Wind Dir Wind Speed Gust Speed Precip Events Conditions
12:01 AM 41.0 °F 32.5 °F 39.2 °F 93% 29.73 in 2.5 mi East 17.3 mph - N/A Rain Light Rain
12:08 AM 41.0 °F 31.6 °F 39.2 °F 93% 29.72 in 2.5 mi East 20.7 mph 25.3 mph N/A Rain Light Rain
12:10 AM 41.0 °F 31.9 °F 39.2 °F 93% 29.72 in 3.0 mi East 19.6 mph 26.5 mph N/A Rain Light Rain
12:22 AM 41.0 °F 32.5 °F 39.2 °F 93% 29.71 in 2.5 mi East 17.3 mph 27.6 mph N/A Rain Light Rain
12:25 AM 41.0 °F 31.9 °F 39.2 °F 93% 29.70 in 2.0 mi East 19.6 mph 27.6 mph N/A Rain Light Rain
12:38 AM 41.0 °F 31.9 °F 39.2 °F 93% 29.70 in 2.5 mi East 19.6 mph 24.2 mph N/A Rain Light Rain
12:45 AM 41.0 °F 32.8 °F 39.2 °F 93% 29.70 in 2.0 mi East 16.1 mph 24.2 mph N/A Rain Light Rain
12:55 AM 41.5 °F 32.9 °F 39.9 °F 94% 29.69 in 1.5 mi East 18.4 mph 23.0 mph 0.09 in Rain Rain
12:56 AM 41.0 °F 31.9 °F 39.2 °F 93% 29.67 in 1.2 mi East 19.6 mph 24.2 mph N/A Rain Rain
12:59 AM 41.0 °F 31.4 °F 41.0 °F 100% 29.67 in 1.0 mi East 21.9 mph - N/A Rain Rain
1:05 AM 41.0 °F 32.5 °F 41.0 °F 100% 29.67 in 1.2 mi East 17.3 mph 27.6 mph N/A Rain Rain
1:12 AM 41.0 °F 32.5 °F 41.0 °F 100% 29.66 in 1.0 mi East 17.3 mph 28.8 mph N/A Rain Rain
1:20 AM 42.8 °F 33.8 °F 41.0 °F 93% 29.65 in 1.2 mi East 21.9 mph 29.9 mph N/A Rain Light Rain
1:23 AM 42.8 °F 34.0 °F 41.0 °F 93% 29.65 in 1.5 mi East 20.7 mph 29.9 mph N/A Rain Light Rain
1:27 AM 42.8 °F 33.8 °F 41.0 °F 93% 29.65 in 1.8 mi East 21.9 mph 29.9 mph N/A Rain Light Rain
1:36 AM 42.8 °F 33.3 °F 41.0 °F 93% 29.65 in 1.5 mi East 24.2 mph 29.9 mph N/A Rain Light Rain
1:42 AM 42.8 °F 34.3 °F 41.0 °F 93% 29.64 in 1.2 mi East 19.6 mph 27.6 mph N/A Rain Light Rain
1:46 AM 42.8 °F 33.8 °F 41.0 °F 93% 29.64 in 1.5 mi East 21.9 mph - N/A Rain Light Rain
1:55 AM 42.4 °F 34.1 °F 41.2 °F 95% 29.64 in 1.5 mi East 18.4 mph - 0.22 in Rain Light Rain
1:59 AM 42.8 °F 33.5 °F 41.0 °F 93% 29.63 in 1.5 mi East 23.0 mph 26.5 mph N/A Rain Light Rain
2:02 AM 42.8 °F 33.8 °F 41.0 °F 93% 29.62 in 1.2 mi East 21.9 mph 27.6 mph N/A Rain Light Rain
2:14 AM 42.8 °F 34.5 °F 41.0 °F 93% 29.62 in 1.5 mi East 18.4 mph 29.9 mph N/A Rain Light Rain
2:25 AM 42.8 °F 34.3 °F 42.8 °F 100% 29.61 in 1.8 mi East 19.6 mph 26.5 mph N/A Rain Light Rain
2:29 AM 42.8 °F 34.3 °F 42.8 °F 100% 29.60 in 2.0 mi East 19.6 mph 26.5 mph N/A Rain Light Rain
2:39 AM 44.6 °F 37.2 °F 42.8 °F 93% 29.59 in 2.5 mi ESE 17.3 mph 21.9 mph N/A Rain Light Rain
2:44 AM 44.6 °F 37.4 °F 42.8 °F 93% 29.58 in 3.0 mi ESE 16.1 mph 24.2 mph N/A Rain Light Rain
2:46 AM 44.6 °F 36.4 °F 42.8 °F 93% 29.57 in 3.0 mi East 20.7 mph 27.6 mph N/A Rain Light Rain
2:55 AM 44.1 °F 37.4 °F 42.8 °F 95% 29.57 in 5.0 mi East 13.8 mph 27.6 mph 0.07 in Rain Light Rain
3:01 AM 44.6 °F 35.9 °F 42.8 °F 93% 29.56 in 5.0 mi East 23.0 mph 27.6 mph N/A Rain Light Rain
3:16 AM 44.6 °F 35.7 °F 42.8 °F 93% 29.55 in 4.0 mi East 24.2 mph 31.1 mph N/A   Overcast
3:20 AM 44.6 °F 35.3 °F 42.8 °F 93% 29.54 in 3.0 mi East 26.5 mph 33.4 mph N/A Rain Light Rain
3:21 AM 44.6 °F 35.5 °F 42.8 °F 93% 29.54 in 2.5 mi East 25.3 mph 33.4 mph N/A Rain Light Rain
3:25 AM 44.6 °F 35.5 °F 42.8 °F 93% 29.54 in 1.8 mi East 25.3 mph 34.5 mph N/A Rain Light Rain
3:29 AM 44.6 °F 36.9 °F 42.8 °F 93% 29.54 in 2.0 mi East 18.4 mph 34.5 mph N/A Rain Light Rain
3:32 AM 44.6 °F 36.6 °F 42.8 °F 93% 29.53 in 3.0 mi East 19.6 mph 34.5 mph N/A Rain Light Rain
3:34 AM 44.6 °F 36.6 °F 42.8 °F 93% 29.53 in 4.0 mi East 19.6 mph 34.5 mph N/A Rain Light Rain
3:35 AM 44.6 °F 35.9 °F 42.8 °F 93% 29.53 in 5.0 mi East 23.0 mph 34.5 mph N/A   Overcast
3:37 AM 44.6 °F 35.3 °F 42.8 °F 93% 29.53 in 6.0 mi East 26.5 mph 32.2 mph N/A   Overcast
3:55 AM 45.3 °F 38.1 °F 43.9 °F 95% 29.52 in 6.0 mi East 17.3 mph - 0.01 in   Overcast
3:58 AM 44.6 °F 36.1 °F 44.6 °F 100% 29.51 in 6.0 mi East 21.9 mph 27.6 mph N/A   Overcast
4:16 AM 46.4 °F 40.4 °F 44.6 °F 93% 29.49 in 6.0 mi East 13.8 mph 27.6 mph N/A   Overcast
4:32 AM 46.4 °F 39.2 °F 44.6 °F 93% 29.48 in 8.0 mi East 18.4 mph 27.6 mph N/A   Overcast
4:45 AM 46.4 °F 38.3 °F 44.6 °F 93% 29.48 in 5.0 mi East 23.0 mph 31.1 mph N/A Rain Light Rain
4:46 AM 46.4 °F 38.5 °F 44.6 °F 93% 29.48 in 5.0 mi East 21.9 mph 31.1 mph N/A Rain Light Rain
4:55 AM 46.2 °F 39.3 °F 44.6 °F 94% 29.47 in 5.0 mi East 17.3 mph 31.1 mph 0.00 in Rain Light Rain
4:56 AM 46.4 °F 39.5 °F 44.6 °F 93% 29.47 in 7.0 mi East 17.3 mph 24.2 mph N/A   Overcast
5:02 AM 46.4 °F 39.2 °F 44.6 °F 93% 29.47 in 9.0 mi East 18.4 mph 24.2 mph N/A   Overcast
5:07 AM 46.4 °F 38.7 °F 44.6 °F 93% 29.46 in 10.0 mi East 20.7 mph - N/A   Overcast
5:11 AM 48.2 °F - 46.4 °F 93% 29.46 in 10.0 mi East 17.3 mph - N/A   Overcast
5:15 AM 48.2 °F - 46.4 °F 93% 29.46 in 10.0 mi East 21.9 mph 25.3 mph N/A   Overcast
5:19 AM 48.2 °F - 44.6 °F 87% 29.45 in 10.0 mi East 20.7 mph 25.3 mph N/A   Overcast
5:22 AM 48.2 °F - 44.6 °F 87% 29.44 in 10.0 mi East 23.0 mph - N/A   Overcast
5:45 AM 48.2 °F - 46.4 °F 93% 29.43 in 7.0 mi ESE 21.9 mph 26.5 mph N/A Rain Light Rain
5:49 AM 48.2 °F - 46.4 °F 93% 29.42 in 1.8 mi East 19.6 mph 26.5 mph N/A Rain Light Rain
5:55 AM 47.7 °F - 45.5 °F 92% 29.42 in 1.5 mi East 19.6 mph 26.5 mph 0.00 in Rain Light Rain
5:59 AM 48.2 °F - 44.6 °F 87% 29.42 in 1.8 mi East 23.0 mph 31.1 mph N/A Rain Light Rain
6:01 AM 48.2 °F - 44.6 °F 87% 29.42 in 2.5 mi East 21.9 mph 31.1 mph N/A   Overcast
6:09 AM 48.2 °F - 44.6 °F 87% 29.42 in 8.0 mi East 15.0 mph - N/A   Overcast
6:11 AM 48.2 °F - 44.6 °F 87% 29.41 in 9.0 mi ESE 16.1 mph - N/A   Overcast
6:14 AM 48.2 °F - 44.6 °F 87% 29.41 in 10.0 mi ESE 20.7 mph - N/A   Overcast
6:20 AM 48.2 °F - 44.6 °F 87% 29.40 in 10.0 mi East 17.3 mph 28.8 mph N/A   Overcast
6:44 AM 48.2 °F - 44.6 °F 87% 29.39 in 7.0 mi East 18.4 mph - N/A   Overcast
6:48 AM 48.2 °F - 44.6 °F 87% 29.39 in 7.0 mi East 18.4 mph - N/A   Overcast
6:55 AM 47.7 °F - 45.5 °F 92% 29.39 in 7.0 mi East 16.1 mph 23.0 mph 0.01 in   Overcast
6:59 AM 48.2 °F - 44.6 °F 87% 29.38 in 6.0 mi East 18.4 mph 25.3 mph N/A Rain Light Rain
7:11 AM 48.2 °F - 44.6 °F 87% 29.37 in 5.0 mi East 13.8 mph 25.3 mph N/A   Overcast
7:17 AM 48.2 °F - 44.6 °F 87% 29.37 in 5.0 mi East 9.2 mph - N/A   Overcast
7:34 AM 48.2 °F - 46.4 °F 93% 29.37 in 4.0 mi Variable 3.5 mph - N/A   Overcast
7:38 AM 48.2 °F - 44.6 °F 87% 29.37 in 4.0 mi Calm Calm - N/A   Overcast
7:55 AM 47.1 °F - 45.1 °F 93% 29.36 in 4.0 mi South 15.0 mph - 0.00 in   Overcast
8:13 AM 46.4 °F 39.2 °F 44.6 °F 93% 29.37 in 7.0 mi WSW 18.4 mph 24.2 mph N/A   Overcast
8:18 AM 44.6 °F 36.4 °F 42.8 °F 93% 29.37 in 10.0 mi SW 20.7 mph - N/A   Overcast
8:19 AM 44.6 °F 36.1 °F 42.8 °F 93% 29.38 in 10.0 mi SW 21.9 mph 28.8 mph N/A   Overcast
8:38 AM 42.8 °F 34.8 °F 39.2 °F 87% 29.38 in 10.0 mi WSW 17.3 mph 27.6 mph N/A   Overcast
8:55 AM 41.0 °F 32.2 °F 38.8 °F 92% 29.38 in 10.0 mi WSW 18.4 mph 25.3 mph N/A   Overcast
9:37 AM 37.4 °F 27.8 °F 35.6 °F 93% 29.38 in 10.0 mi SW 17.3 mph 26.5 mph N/A   Overcast
9:55 AM 37.8 °F 27.7 °F 35.2 °F 91% 29.38 in 10.0 mi WSW 19.6 mph 26.5 mph N/A   Overcast
10:19 AM 37.4 °F 28.2 °F 33.8 °F 87% 29.37 in 10.0 mi SW 16.1 mph 25.3 mph N/A   Overcast
10:33 AM 37.4 °F 26.9 °F 33.8 °F 87% 29.37 in 10.0 mi WSW 20.7 mph 27.6 mph N/A   Overcast
10:55 AM 37.9 °F 28.2 °F 34.2 °F 86% 29.35 in 10.0 mi WSW 18.4 mph 28.8 mph 0.00 in   Overcast
11:55 AM 39.0 °F 29.9 °F 34.9 °F 85% 29.34 in 10.0 mi WSW 17.3 mph 23.0 mph 0.00 in   Overcast
12:24 PM 37.4 °F 27.8 °F 33.8 °F 87% 29.32 in 10.0 mi WSW 17.3 mph - N/A   Overcast
12:26 PM 37.4 °F 28.5 °F 33.8 °F 87% 29.32 in 2.0 mi WSW 15.0 mph - N/A   Overcast
12:39 PM 37.4 °F 31.4 °F 35.6 °F 93% 29.32 in 2.0 mi WSW 8.1 mph - N/A   Drizzle
12:57 PM 37.4 °F 31.4 °F 35.6 °F 93% 29.31 in 2.0 mi West 8.1 mph - N/A   Drizzle
1:15 PM 39.2 °F 34.2 °F 37.4 °F 93% 29.31 in 8.0 mi WSW 6.9 mph - N/A   Overcast
1:24 PM 39.2 °F 35.0 °F 37.4 °F 93% 29.30 in 1.2 mi West 5.8 mph - N/A   Drizzle
1:55 PM 39.4 °F 30.1 °F 37.6 °F 93% 29.31 in 3.0 mi NNW 18.4 mph 28.8 mph 0.00 in Rain Light Rain
2:07 PM 39.2 °F 30.5 °F 37.4 °F 93% 29.31 in 9.0 mi NW 16.1 mph 27.6 mph N/A   Overcast
2:11 PM 39.2 °F 30.8 °F 37.4 °F 93% 29.32 in 10.0 mi NW 15.0 mph 27.6 mph N/A   Overcast
2:15 PM 39.2 °F 30.5 °F 37.4 °F 93% 29.32 in 10.0 mi NW 16.1 mph 27.6 mph N/A   Overcast
2:22 PM 39.2 °F 31.2 °F 35.6 °F 87% 29.33 in 10.0 mi NW 13.8 mph 27.6 mph N/A   Overcast
2:32 PM 39.2 °F 29.0 °F 35.6 °F 87% 29.33 in 8.0 mi NW 21.9 mph 28.8 mph N/A   Overcast
2:55 PM 40.3 °F 30.2 °F 38.1 °F 92% 29.37 in 2.5 mi North 23.0 mph 41.4 mph 0.01 in Rain Rain
3:21 PM 39.2 °F 29.0 °F 37.4 °F 93% 29.41 in 4.0 mi North 21.9 mph 43.7 mph N/A   Overcast
3:33 PM 39.2 °F 27.2 °F 37.4 °F 93% 29.41 in 1.5 mi North 31.1 mph 41.4 mph N/A Rain Light Rain
3:34 PM 39.2 °F 27.6 °F 37.4 °F 93% 29.43 in 1.2 mi North 28.8 mph 41.4 mph N/A   Overcast
3:42 PM 39.2 °F 28.3 °F 37.4 °F 93% 29.44 in 0.8 mi NNW 25.3 mph 42.6 mph N/A   Overcast
3:55 PM 39.2 °F 27.0 °F 37.0 °F 92% 29.44 in 2.0 mi North 32.2 mph 43.7 mph 0.02 in   Overcast
3:56 PM 39.2 °F 27.4 °F 37.4 °F 93% 29.46 in 5.0 mi NNW 29.9 mph 44.9 mph N/A   Overcast
4:06 PM 39.2 °F 27.0 °F 37.4 °F 93% 29.48 in 4.0 mi NNW 32.2 mph 46.0 mph N/A   Overcast
4:11 PM 39.2 °F 26.6 °F 37.4 °F 93% 29.49 in 10.0 mi North 34.5 mph 46.0 mph N/A   Overcast
4:17 PM 39.2 °F 27.8 °F 35.6 °F 87% 29.49 in 10.0 mi North 27.6 mph 42.6 mph N/A   Overcast
4:55 PM 39.4 °F 26.7 °F 35.6 °F 86% 29.53 in 10.0 mi NNW 35.7 mph 46.0 mph 0.01 in   Overcast
5:26 PM 39.2 °F 27.4 °F 35.6 °F 87% 29.57 in 10.0 mi NNW 29.9 mph 47.2 mph N/A   Overcast
5:40 PM 39.2 °F 26.6 °F 35.6 °F 87% 29.58 in 8.0 mi NNW 34.5 mph 50.6 mph N/A Rain Light Rain
5:55 PM 39.6 °F 28.1 °F 35.8 °F 86% 29.61 in 6.0 mi NNW 28.8 mph 49.5 mph 0.01 in   Overcast
6:55 PM 39.4 °F 27.6 °F 35.6 °F 86% 29.69 in 9.0 mi NNW 29.9 mph 47.2 mph 0.01 in   Overcast
7:10 PM 39.2 °F 27.8 °F 35.6 °F 87% 29.72 in 9.0 mi NNW 27.6 mph 39.1 mph N/A   Overcast
7:31 PM 39.2 °F 28.3 °F 35.6 °F 87% 29.73 in 8.0 mi NNW 25.3 mph 43.7 mph N/A   Overcast
7:55 PM 38.5 °F 27.8 °F 34.9 °F 87% 29.75 in 10.0 mi NNW 23.0 mph 41.4 mph 0.01 in   Overcast
8:27 PM 39.2 °F 27.6 °F 35.6 °F 87% 29.77 in 10.0 mi NNW 28.8 mph 38.0 mph N/A   Overcast
8:55 PM 38.7 °F 27.1 °F 35.4 °F 88% 29.79 in 10.0 mi NNW 27.6 mph 34.5 mph 0.01 in   Overcast
9:19 PM 39.2 °F 29.6 °F 35.6 °F 87% 29.82 in 10.0 mi NNW 19.6 mph 28.8 mph N/A   Overcast
9:55 PM 39.6 °F 29.7 °F 35.4 °F 85% 29.83 in 10.0 mi NNW 20.7 mph 34.5 mph 0.00 in Rain Light Rain
9:56 PM 39.2 °F 28.7 °F 35.6 °F 87% 29.84 in 10.0 mi NNW 23.0 mph 35.7 mph N/A   Overcast
10:55 PM 39.9 °F 30.2 °F 35.2 °F 83% 29.86 in 10.0 mi NNW 20.7 mph 29.9 mph 0.01 in   Overcast
11:02 PM 39.2 °F 29.3 °F 35.6 °F 87% 29.87 in 10.0 mi NNW 20.7 mph 29.9 mph N/A   Overcast
11:21 PM 39.2 °F 29.8 °F 33.8 °F 81% 29.87 in 10.0 mi NNW 18.4 mph 29.9 mph N/A   Overcast
11:55 PM 39.7 °F 29.7 °F 33.4 °F 78% 29.88 in 10.0 mi NNW 21.9 mph 28.8 mph N/A   Overcast